Regional Weather Roundup
Issued by NWS

Home | Current Version | Previous Version | Text Only | Print | Product List | Glossary Off
Versions: 1 2 3 4 5 6 7 8 9 10 11 12 13 14 15 16 17 18 19 20 21 22 23 24 25 26 27 28 29 30 31 32 33 34 35 36 37 38 39 40 41 42 43 44 45 46 47 48 49 50

000
ASUS43 KLOT 052108
RWRIL

ILLINOIS REGIONAL WEATHER ROUNDUP
NATIONAL WEATHER SERVICE CHICAGO/ROMEOVILLE IL
400 PM CDT THU MAY 05 2016

NOTE: "FAIR" INDICATES FEW OR NO CLOUDS BELOW 12,000 FEET WITH NO
SIGNIFICANT WEATHER AND/OR OBSTRUCTIONS TO VISIBILITY.

* THESE STATIONS ARE NOT UNDER NWS QUALITY CONTROL. THEY ALSO MAY NOT
  REPORT WEATHER SUCH AS PRECIPITATION OR FOG.

ILZ001-002-007-009-015-016-024-052200-
NORTHWEST ILLINOIS

CITY           SKY/WX    TMP DP  RH WIND       PRES   REMARKS
MOLINE         SUNNY     68  35  29 VRB5      30.00F
STERLING*      SUNNY     66  39  37 NW10      30.00F
SAVANNA*       SUNNY     66  39  37 NW8       30.00F
$$

ILZ003-004-008-010-011-017-018-052200-
NORTH CENTRAL ILLINOIS

CITY           SKY/WX    TMP DP  RH WIND       PRES   REMARKS
ROCKFORD       MOSUNNY   66  36  32 VRB5      30.01F
FREEPORT*      SUNNY     63  37  37 N7        30.01F
ROCHELLE*      SUNNY     64  42  45 NW7       30.00F
DE KALB*       MOSUNNY   63  44  49 N6        29.99F
$$

ILZ005-006-012>014-019>023-052200-
NORTHEAST ILLINOIS

CITY           SKY/WX    TMP DP  RH WIND       PRES   REMARKS
CHICAGO-OHARE  MOSUNNY   60  41  49 E9        29.98F
CHICAGO-MIDWAY MOSUNNY   58  39  49 NE10      29.99F
AURORA         SUNNY     65  44  46 N8        29.98F
LANSING*       SUNNY     54  41  61 NE8       30.00F
JOLIET*        MOSUNNY   65  44  46 N6        29.97F
WAUKEGAN       SUNNY     53  40  61 NE9       29.98F
DUPAGE AIRPORT MOSUNNY   65  42  43 N8        29.97F
KANKAKEE*      SUNNY     63  44  49 N10       29.98F
WHEELING       SUNNY     56  39  53 E9        30.00F
MORRIS*        MOSUNNY   64  43  46 CALM      29.97F
ROMEOVILLE*    MOSUNNY   64  42  43 N7        29.98S
NORTHERLY ISL    N/A     50  41  71 MISG        N/A
NORTHERLY ISL    N/A     50  41  71 MISG        N/A
$$

LMZ740>746-052200-
SOUTHERN LAKE MICHIGAN

STATION/POSITION SKY/WX   TEMP    WIND        PRES    VSBY  WAVE
                          AIR SEA DIR/SP/G                  HT/PER
                          (F)     (DEG/KT/KT) (MB)    (MI)  (FT/S)
SOUTHERN BUOY              42 40   10/ 10/ 12 1015.6F         3/ 5
WILMETTE HARBOR            44 44   80/ 10/ 12   N/A           4/ 6
HARRISON CRIB              45      20/ 14/ 17   N/A
BURNHAM HARBOR             50     340/  9/ 11   N/A
CALUMET HARBOR             47     340/ 12/ 18 1016.0F
BURNS HARBOR               43      10/  6/ 11 1016.9F
MICHIGAN CITY              44     330/ 11/ 13   N/A
ST. JOSEPH                 43 47                N/A           4/ 5
$$

ILZ025>027-034>036-040-047-049-050-058-095>099-052200-
WEST-CENTRAL ILLINOIS

CITY           SKY/WX    TMP DP  RH WIND       PRES   REMARKS
QUINCY         SUNNY     65  40  39 NW12      30.03F
GALESBURG*     SUNNY     65  38  36 N8        30.01F
MACOMB*        SUNNY     66  36  33 N10G17    30.04F
JACKSONVILLE*  MOSUNNY   66  40  39 NW6       30.01F
PITTSFIELD*    SUNNY     65  41  42 NW7       30.03F
$$

ILZ028>032-037-038-041>044-048-051>054-059>061-052200-
CENTRAL ILLINOIS

CITY           SKY/WX    TMP DP  RH WIND       PRES   REMARKS
PONTIAC        PTSUNNY   67  45  45 NW8G21    29.98F
BLOOMINGTON    MOSUNNY   67  43  41 N9G18     29.99F
DECATUR        MOSUNNY   63  43  48 N12       29.98F
PEORIA         MOSUNNY   66  42  41 N8        30.00F
LACON*         SUNNY     65  43  44 N5        29.99F
LINCOLN*       MOSUNNY   66  46  48 N12       29.99F
SPRINGFIELD    MOSUNNY   67  42  40 N6        30.00F
TAYLORVILLE    PTSUNNY   65  44  46 N13       30.00S
$$

ILZ033-039-045-046-055>057-062-063-052200-
EAST-CENTRAL ILLINOIS

CITY           SKY/WX    TMP DP  RH WIND       PRES   REMARKS
CHAMPAIGN      MOSUNNY   67  41  38 N12       29.96S
RANTOUL*       MOSUNNY   67  43  40 NE10G16   29.96F
MATTOON        MOSUNNY   64  42  44 N16G23    29.95F
PARIS*         MOSUNNY   65  45  49 N7        29.95F
$$

ILZ079-100>102-052200-
SOUTHWEST ILLINOIS

CITY           SKY/WX    TMP DP  RH WIND       PRES   REMARKS
ALTON          PTSUNNY   64  43  45 N9        30.02F
BELLEVILLE     MOSUNNY   64  47  52 N9        30.00F
CAHOKIA*       MOSUNNY   64  43  46 NE12G18   30.02S
SPARTA*        PTSUNNY   61  45  56 N9G17     30.02F
$$

ILZ064>066-069>071-074>076-080>082-084>086-088>090-092>094-052200-
SOUTH-CENTRAL ILLINOIS

CITY           SKY/WX    TMP DP  RH WIND       PRES   REMARKS
CARBONDALE     CLOUDY    59  43  55 N12       30.00F
CAIRO*         PTSUNNY   63  44  50 N15       29.99S
EFFINGHAM*     MOSUNNY   63  48  57 NW13      29.98F
MARION         PTSUNNY   61  45  55 N15       30.00F
MT. VERNON     CLOUDY    61  45  55 N5        30.00F
CENTRALIA*     PTSUNNY   62  48  60 N15       29.99F
SALEM*         PTSUNNY   62  46  54 N13G20    29.99F
METROPOLIS*    PTSUNNY   61  46  56 N9        29.98F
$$

ILZ067-068-072-073-078-083-087-091-052200-
SOUTHEAST ILLINOIS

CITY           SKY/WX    TMP DP  RH WIND       PRES   REMARKS
LAWRENCEVILLE  MOSUNNY   65  47  52 N15G22    29.94F
FLORA*         PTSUNNY   64  47  54 N10G18    29.97F
FAIRFIELD*     CLOUDY    61  47  59 W10G17    29.97S
HARRISBURG*    CLOUDY    58  46  62 N12G17    29.99S
ROBINSON*      MOSUNNY   61  46  58 N13       29.95S
CARMI*         PTSUNNY   59  47  65 N8        29.97S
$$

ABBREVIATIONS USED IN REMARKS
   TC - TEMPERATURE IN CELSIUS
  WCI - WIND CHILL INDEX
   HX - HEAT INDEX
  VSB - VISIBILITY
$$





USA.gov is the U.S. government's official web portal to all federal, state and local government web resources and services.